This demonstration page uses our WeatherBlox Daily Observations layout. Learn more.

Left ArrowRight Arrow

Hourly Observations for May 23, 2021

Temp ( °F °C ) Dew Point ( °F °C ) Humidity (%) Winds ( mph kmh ) Pressure ( in mb ) Visibility ( mi km ) Precip ( " mm )
12:15 am 00:15 Clear 67 19.7 56 13.2 66 66 WSW 5 7 30.26 1025 10 16 0.00 0.00
12:35 am 00:35 Clear 66 18.8 56 13.5 71 71 WSW 3 6 30.26 1025 10 16 0.00 0.00
12:55 am 00:55 Clear 65 18.4 56 13.5 73 73 WSW 5 7 30.26 1025 10 16 0.00 0.00
1:15 am 01:15 Clear 66 18.7 56 13.1 70 70 W 5 7 30.26 1025 10 16 0.00 0.00
1:35 am 01:35 Clear 64 17.9 56 13.4 75 75 WSW 3 6 30.26 1025 10 16 0.00 0.00
1:55 am 01:55 Clear 64 17.6 56 13.5 77 77 WSW 3 6 30.26 1025 10 16 0.00 0.00
2:15 am 02:15 Clear 63 17.3 56 13.3 78 78 W 3 6 30.26 1025 10 16 0.00 0.00
2:35 am 02:35 Clear 65 18.2 56 13.5 74 74 W 6 9 30.25 1024 10 16 0.00 0.00
2:55 am 02:55 Clear 65 18.3 56 13.5 74 74 W 5 7 30.25 1024 10 16 0.00 0.00
3:15 am 03:15 Clear 64 17.9 56 13.5 76 76 Calm 30.25 1024 10 16 0.00 0.00
3:35 am 03:35 Clear 62 16.8 56 13.2 79 79 W 3 6 30.26 1025 10 16 0.00 0.00
3:55 am 03:55 Clear 63 17.1 56 13.3 78 78 Calm 30.26 1025 10 16 0.00 0.00
4:15 am 04:15 Clear 60 15.7 56 13.5 87 87 Calm 30.25 1024 10 16 0.00 0.00
4:35 am 04:35 Clear 60 15.5 56 13.4 87 87 Calm 30.25 1024 10 16 0.00 0.00
4:55 am 04:55 Clear 58 14.6 55 12.8 89 89 Calm 30.26 1025 10 16 0.00 0.00
5:15 am 05:15 Clear 59 15 56 13.2 89 89 WSW 3 6 30.26 1025 10 16 0.00 0.00
5:35 am 05:35 Clear 59 15 56 13.4 90 90 Calm 30.26 1025 10 16 0.00 0.00
5:55 am 05:55 Clear 58 14.7 56 13.4 92 92 Calm 30.26 1025 10 16 0.00 0.00
6:15 am 06:15 Clear 58 14.7 56 13.5 93 93 Calm 30.26 1025 10 16 0.00 0.00
6:35 am 06:35 Mostly Cloudy 59 15 56 13.5 91 91 Calm 30.27 1025 10 16 0.00 0.00
6:55 am 06:55 Mostly Cloudy 59 15 57 13.7 92 92 Calm 30.27 1025 10 16 0.00 0.00
7:15 am 07:15 Cloudy 61 16.2 58 14.4 89 89 Calm 30.27 1025 10 16 0.00 0.00
7:35 am 07:35 Cloudy 63 17.2 59 15.2 88 88 Calm 30.28 1025 10 16 0.00 0.00
7:55 am 07:55 Cloudy 65 18.4 61 15.9 85 85 Calm 30.27 1025 10 16 0.00 0.00
8:15 am 08:15 Cloudy 67 19.2 61 16.1 82 82 W 3 6 30.27 1025 10 16 0.00 0.00
8:35 am 08:35 Cloudy 67 19.7 62 16.5 82 82 WNW 3 6 30.27 1025 10 16 0.00 0.00
8:55 am 08:55 Cloudy 68 20.2 62 16.7 80 80 Calm 30.27 1025 10 16 0.00 0.00
9:15 am 09:15 Cloudy 69 20.7 63 17.2 80 80 W 3 6 30.26 1025 10 16 0.00 0.00
9:35 am 09:35 Cloudy 70 21.3 64 17.5 79 79 W 3 6 30.26 1025 10 16 0.00 0.00
9:55 am 09:55 Cloudy 72 22 64 17.8 77 77 W 3 6 30.26 1025 10 16 0.00 0.00
10:15 am 10:15 Cloudy 73 22.6 64 18 75 75 WNW 3 6 30.25 1024 10 16 0.00 0.00
10:35 am 10:35 Cloudy 73 23 64 17.5 71 71 NW 6 9 30.25 1024 10 16 0.00 0.00
10:55 am 10:55 Cloudy 75 23.7 63 17.4 68 68 WNW 5 7 30.23 1024 7 11 0.00 0.00
11:15 am 11:15 Cloudy 76 24.6 63 17.1 63 63 WNW 7 11 30.23 1024 10 16 0.00 0.00
11:35 am 11:35 Cloudy 76 24.6 63 17.2 64 64 W 3 6 30.23 1024 10 16 0.00 0.00
11:55 am 11:55 Cloudy 77 25.2 63 17.4 62 62 W 8 13 30.22 1023 10 16 0.00 0.00
12:15 pm 12:15 Cloudy 79 26 62 16.8 57 57 W 7 11 30.22 1023 10 16 0.00 0.00
12:35 pm 12:35 Cloudy 78 25.8 61 16.3 56 56 WNW 7 11 30.22 1023 10 16 0.00 0.00
12:55 pm 12:55 Cloudy 79 26 61 16.3 55 55 WNW 7 11 30.21 1023 10 16 0.00 0.00
1:15 pm 13:15 Mostly Cloudy 81 27.1 62 16.8 53 53 W 8 13 30.19 1022 10 16 0.00 0.00
1:35 pm 13:35 Mostly Cloudy 80 26.6 61 16.1 53 53 WNW 6 9 30.19 1023 10 16 0.00 0.00
1:55 pm 13:55 Mostly Cloudy 80 26.5 62 16.5 54 54 WSW 8 13 30.18 1022 10 16 0.00 0.00
2:15 pm 14:15 Cloudy 80 26.8 61 16.3 53 53 SW 7 11 30.18 1022 10 16 0.00 0.00
2:35 pm 14:35 Cloudy 81 27.1 61 16 51 51 WNW 6 9 30.17 1022 10 16 0.00 0.00
2:55 pm 14:55 Cloudy 81 27.4 59 15.1 47 47 W 9 15 30.17 1022 10 16 0.00 0.00
3:15 pm 15:15 Cloudy 81 27.2 60 15.6 49 49 WSW 8 13 30.16 1021 10 16 0.00 0.00
3:35 pm 15:35 Cloudy 81 27.3 60 15.3 48 48 W 5 7 30.16 1021 10 16 0.00 0.00
3:55 pm 15:55 Cloudy 83 28.1 61 15.9 47 47 W 7 11 30.15 1021 10 16 0.00 0.00
4:15 pm 16:15 Cloudy 84 28.7 61 15.9 46 46 W 6 9 30.14 1021 10 16 0.00 0.00
4:35 pm 16:35 Cloudy 82 28 60 15.6 47 47 NNW 7 11 30.13 1020 10 16 0.00 0.00
4:55 pm 16:55 Mostly Cloudy 83 28.3 59 14.9 44 44 WSW 5 7 30.13 1020 10 16 0.00 0.00
5:15 pm 17:15 Mostly Cloudy 83 28.6 61 16.2 47 47 W 7 11 30.13 1020 10 16 0.00 0.00
5:35 pm 17:35 Partly Cloudy 84 28.8 60 15.7 45 45 W 9 15 30.12 1020 10 16 0.00 0.00
5:55 pm 17:55 Partly Cloudy 83 28.6 59 15.1 44 44 W 5 7 30.12 1020 10 16 0.00 0.00
6:15 pm 18:15 Sunny 82 27.9 59 15.1 46 46 W 6 9 30.12 1020 10 16 0.00 0.00
6:35 pm 18:35 Mostly Cloudy 82 27.5 60 15.3 47 47 W 5 7 30.12 1020 10 16 0.00 0.00
6:55 pm 18:55 Mostly Cloudy 82 27.5 59 15.1 47 47 W 5 7 30.12 1020 10 16 0.00 0.00
7:15 pm 19:15 Cloudy 82 27.8 60 15.5 47 47 W 5 7 30.11 1020 10 16 0.00 0.00
7:35 pm 19:35 Mostly Cloudy 82 27.8 60 15.3 47 47 W 6 9 30.11 1020 10 16 0.00 0.00
7:55 pm 19:55 Partly Cloudy 82 27.6 60 15.4 47 47 W 5 7 30.11 1020 10 16 0.00 0.00
8:15 pm 20:15 Sunny 81 27 59 15 48 48 WSW 7 11 30.11 1020 10 16 0.00 0.00
8:35 pm 20:35 Sunny 79 25.9 60 15.3 52 52 WSW 6 9 30.12 1020 10 16 0.00 0.00
8:55 pm 20:55 Sunny 77 25.1 60 15.3 55 55 W 5 7 30.13 1020 10 16 0.00 0.00
9:15 pm 21:15 Clear 76 24.5 60 15.5 57 57 W 5 7 30.13 1020 10 16 0.00 0.00
9:35 pm 21:35 Clear 75 23.8 60 15.5 60 60 WSW 5 7 30.13 1020 10 16 0.00 0.00
9:55 pm 21:55 Clear 73 22.6 61 15.9 66 66 WSW 3 6 30.14 1021 10 16 0.00 0.00
10:15 pm 22:15 Clear 72 22.1 61 16.1 69 69 Calm 30.15 1021 10 16 0.00 0.00
10:35 pm 22:35 Clear 70 21.3 62 16.4 74 74 Calm 30.16 1021 10 16 0.00 0.00
10:55 pm 22:55 Clear 70 21.3 61 16 72 72 Calm 30.16 1021 10 16 0.00 0.00
11:15 pm 23:15 Clear 69 20.6 61 16.3 76 76 Calm 30.16 1021 10 16 0.00 0.00
11:35 pm 23:35 Clear 69 20.3 61 16.2 77 77 Calm 30.16 1021 10 16 0.00 0.00
11:55 pm 23:55 Clear 68 20.1 62 16.4 79 79 Calm 30.16 1021 10 16 0.00 0.00

Powered by AerisWeather